Location: Unspecified
(43.1763°N, 79.4719°W)
Time: 23:11:48
(UTC-04:00)

Resurs 1-4 Rocket - Visible Passes

Search period start: 25 September 2018 00:00
Search period end: 05 October 2018 00:00
Orbit: 799 x 814 km, 98.5° (Epoch: 24 September)

Date Brightness Start Highest point End Pass type
(mag) Time Alt. Az. Time Alt. Az. Time Alt. Az.
25 Sep 4.7 02:37:52 10° NNE 02:38:53 15° NE 02:38:53 15° NE visible
25 Sep 3.9 04:17:56 10° N 04:19:57 20° NNW 04:19:57 20° NNW visible
26 Sep 5.1 02:13:52 10° NE 02:13:53 10° NE 02:13:53 10° NE visible
26 Sep 4.0 03:52:59 10° N 03:54:58 22° N 03:54:58 22° N visible
27 Sep 4.2 03:28:15 10° N 03:29:58 21° N 03:29:58 21° N visible
27 Sep 4.3 05:10:41 10° NW 05:11:03 11° NW 05:11:03 11° NW visible
28 Sep 4.5 03:03:42 10° NNE 03:04:58 18° NNE 03:04:58 18° NNE visible
28 Sep 4.2 04:44:42 10° NNW 04:46:03 15° NNW 04:46:03 15° NNW visible
29 Sep 4.9 02:39:21 10° NNE 02:40:00 13° NNE 02:40:00 13° NNE visible
29 Sep 4.1 04:19:27 10° N 04:21:04 18° NNW 04:21:04 18° NNW visible
30 Sep 4.2 03:54:30 10° N 03:56:04 19° N 03:56:04 19° N visible
01 Oct 4.4 03:29:46 10° N 03:31:05 18° N 03:31:05 18° N visible
02 Oct 4.7 03:05:12 10° NNE 03:06:06 15° NNE 03:06:06 15° NNE visible
02 Oct 4.3 04:46:16 10° NNW 04:47:10 13° NNW 04:47:10 13° NNW visible
03 Oct 5.0 02:40:50 10° NNE 02:41:06 11° NNE 02:41:06 11° NNE visible
03 Oct 4.3 04:21:00 10° N 04:22:11 16° NNW 04:22:11 16° NNW visible
04 Oct 4.4 03:56:02 10° N 03:57:11 16° N 03:57:11 16° N visible
